Time,TemperatureF,DewpointF,PressureIn,WindDirection,WindDirectionDegrees,WindSpeedMPH,WindSpeedGustMPH,Humidity,HourlyPrecipIn,Conditions,Clouds,dailyrainin,SoftwareType,DateUTC
2013-03-07 00:00:00,36.0,31.6,29.85,North,0,2.7,10.5,84,0.01,,,0.00,WUHU216HW,2013-03-07 05:00:00,
2013-03-07 00:02:00,36.0,31.9,29.85,NNE,23,6.7,10.5,85,0.01,,,0.00,WUHU216HW,2013-03-07 05:02:00,
2013-03-07 00:07:00,36.0,31.6,29.85,East,90,4.9,7.6,84,0.01,,,0.00,WUHU216HW,2013-03-07 05:07:00,
2013-03-07 00:12:00,36.0,31.6,29.85,ENE,68,3.4,5.8,84,0.01,,,0.00,WUHU216HW,2013-03-07 05:12:00,
2013-03-07 00:17:00,35.8,32.0,29.85,NNW,338,3.6,6.3,86,0.01,,,0.00,WUHU216HW,2013-03-07 05:17:00,
2013-03-07 00:22:00,35.8,31.7,29.85,NNW,338,6.3,6.9,85,0.01,,,0.00,WUHU216HW,2013-03-07 05:22:00,
2013-03-07 00:27:00,35.8,31.7,29.85,NNE,23,4.7,8.5,85,0.01,,,0.00,WUHU216HW,2013-03-07 05:27:00,
2013-03-07 00:32:00,35.8,31.7,29.85,North,0,4.5,8.5,85,0.01,,,0.00,WUHU216HW,2013-03-07 05:32:00,
2013-03-07 00:37:00,35.6,31.5,29.86,ENE,68,4.3,7.8,85,0.01,,,0.00,WUHU216HW,2013-03-07 05:37:00,
2013-03-07 00:42:00,35.6,31.2,29.86,NNE,23,4.3,7.8,84,0.01,,,0.00,WUHU216HW,2013-03-07 05:42:00,
2013-03-07 00:47:00,35.6,31.5,29.86,North,0,7.4,7.4,85,0.01,,,0.00,WUHU216HW,2013-03-07 05:47:00,
2013-03-07 00:52:00,35.6,31.5,29.86,NE,45,2.5,9.2,85,0.00,,,0.00,WUHU216HW,2013-03-07 05:52:00,
2013-03-07 00:57:00,35.5,31.6,29.86,North,0,5.1,9.2,86,0.01,,,0.02,WUHU216HW,2013-03-07 05:57:00,
2013-03-07 01:02:00,35.3,31.1,29.87,NNE,23,0.9,7.6,85,0.01,,,0.02,WUHU216HW,2013-03-07 06:02:00,
2013-03-07 01:07:00,35.3,31.4,29.87,NNW,338,4.3,6.5,86,0.01,,,0.02,WUHU216HW,2013-03-07 06:07:00,
2013-03-07 01:12:00,35.3,31.7,29.86,NE,45,8.5,8.7,87,0.01,,,0.02,WUHU216HW,2013-03-07 06:12:00,
2013-03-07 01:17:00,35.1,31.2,29.87,North,0,10.1,10.1,86,0.01,,,0.02,WUHU216HW,2013-03-07 06:17:00,
2013-03-07 01:22:00,35.1,31.2,29.87,SE,135,3.1,10.1,86,0.01,,,0.02,WUHU216HW,2013-03-07 06:22:00,
2013-03-07 01:27:00,35.1,31.2,29.87,North,0,4.7,10.1,86,0.01,,,0.02,WUHU216HW,2013-03-07 06:27:00,
2013-03-07 01:32:00,34.9,31.3,29.87,NE,45,7.6,8.5,87,0.01,,,0.02,WUHU216HW,2013-03-07 06:32:00,
2013-03-07 01:37:00,34.9,31.1,29.86,West,270,3.4,7.6,86,0.01,,,0.02,WUHU216HW,2013-03-07 06:37:00,
2013-03-07 01:42:00,34.9,31.3,29.86,NNW,338,2.5,7.6,87,0.02,,,0.03,WUHU216HW,2013-03-07 06:42:00,
2013-03-07 01:47:00,34.9,31.7,29.86,North,0,3.1,7.6,88,0.02,,,0.03,WUHU216HW,2013-03-07 06:47:00,
2013-03-07 01:52:00,34.7,31.1,29.86,NW,315,3.8,7.6,87,0.02,,,0.03,WUHU216HW,2013-03-07 06:52:00,
2013-03-07 01:57:00,34.7,31.5,29.86,NNE,23,1.8,6.7,88,0.01,,,0.03,WUHU216HW,2013-03-07 06:57:00,
2013-03-07 02:02:00,34.7,31.1,29.86,SW,225,1.1,7.6,87,0.01,,,0.03,WUHU216HW,2013-03-07 07:02:00,
2013-03-07 02:07:00,34.7,31.1,29.86,East,90,1.8,7.6,87,0.01,,,0.03,WUHU216HW,2013-03-07 07:07:00,
2013-03-07 02:12:00,34.7,31.1,29.86,North,0,4.0,5.4,87,0.01,,,0.03,WUHU216HW,2013-03-07 07:12:00,
2013-03-07 02:17:00,34.6,31.3,29.86,North,0,2.5,4.7,88,0.01,,,0.03,WUHU216HW,2013-03-07 07:17:00,
2013-03-07 02:22:00,34.6,31.3,29.86,North,0,2.9,6.5,88,0.01,,,0.03,WUHU216HW,2013-03-07 07:22:00,
2013-03-07 02:27:00,34.6,31.6,29.86,North,0,2.2,6.5,89,0.02,,,0.03,WUHU216HW,2013-03-07 07:27:00,
2013-03-07 02:32:00,34.6,31.6,29.86,ENE,68,5.1,6.3,89,0.02,,,0.03,WUHU216HW,2013-03-07 07:32:00,
2013-03-07 02:37:00,34.6,31.3,29.86,NE,45,2.7,7.2,88,0.01,,,0.03,WUHU216HW,2013-03-07 07:37:00,
2013-03-07 02:42:00,34.6,31.3,29.86,North,0,5.6,7.2,88,0.01,,,0.03,WUHU216HW,2013-03-07 07:42:00,
2013-03-07 02:47:00,34.6,31.3,29.86,North,0,3.4,7.2,88,0.01,,,0.03,WUHU216HW,2013-03-07 07:47:00,
2013-03-07 02:52:00,34.6,31.3,29.86,ENE,68,2.7,7.2,88,0.01,,,0.03,WUHU216HW,2013-03-07 07:52:00,
2013-03-07 02:57:00,34.6,31.6,29.86,NE,45,2.7,7.8,89,0.01,,,0.03,WUHU216HW,2013-03-07 07:57:00,
2013-03-07 03:02:00,34.6,31.3,29.86,NW,315,5.6,7.8,88,0.01,,,0.03,WUHU216HW,2013-03-07 08:02:00,
2013-03-07 03:07:00,34.6,31.3,29.86,North,0,1.8,9.8,88,0.01,,,0.03,WUHU216HW,2013-03-07 08:07:00,
2013-03-07 03:12:00,34.6,31.3,29.86,NNE,23,8.7,9.8,88,0.01,,,0.03,WUHU216HW,2013-03-07 08:12:00,
2013-03-07 03:17:00,34.6,31.3,29.85,NNW,338,6.3,8.7,88,0.01,,,0.03,WUHU216HW,2013-03-07 08:17:00,
2013-03-07 03:22:00,34.6,31.3,29.86,NE,45,1.8,8.7,88,0.00,,,0.03,WUHU216HW,2013-03-07 08:22:00,
2013-03-07 03:27:00,34.6,31.3,29.86,North,0,2.0,8.1,88,0.00,,,0.03,WUHU216HW,2013-03-07 08:27:00,
2013-03-07 03:32:00,34.6,31.0,29.86,NNW,338,4.0,7.4,87,0.00,,,0.03,WUHU216HW,2013-03-07 08:32:00,
2013-03-07 03:37:00,34.7,31.1,29.86,NW,315,8.5,8.5,87,0.00,,,0.03,WUHU216HW,2013-03-07 08:37:00,
2013-03-07 03:42:00,34.7,31.1,29.86,NW,315,3.1,8.5,87,0.00,,,0.03,WUHU216HW,2013-03-07 08:42:00,
2013-03-07 03:47:00,34.7,31.1,29.87,WNW,293,4.0,8.5,87,0.00,,,0.03,WUHU216HW,2013-03-07 08:47:00,
2013-03-07 03:52:00,34.7,30.9,29.87,North,0,3.4,9.2,86,0.00,,,0.03,WUHU216HW,2013-03-07 08:52:00,
2013-03-07 03:57:00,34.9,31.1,29.87,East,90,1.8,9.2,86,0.00,,,0.03,WUHU216HW,2013-03-07 08:57:00,
2013-03-07 04:02:00,34.9,30.8,29.87,North,0,3.8,6.9,85,0.00,,,0.03,WUHU216HW,2013-03-07 09:02:00,
2013-03-07 04:07:00,34.9,30.8,29.87,East,90,2.9,6.7,85,0.00,,,0.03,WUHU216HW,2013-03-07 09:07:00,
2013-03-07 04:12:00,34.9,30.8,29.88,NE,45,2.7,7.4,85,0.00,,,0.03,WUHU216HW,2013-03-07 09:12:00,
2013-03-07 04:17:00,35.1,30.7,29.87,East,90,3.8,8.5,84,0.00,,,0.03,WUHU216HW,2013-03-07 09:17:00,
2013-03-07 04:22:00,35.1,30.7,29.88,NNW,338,5.4,8.5,84,0.00,,,0.03,WUHU216HW,2013-03-07 09:22:00,
2013-03-07 04:27:00,35.1,30.7,29.88,WNW,293,3.6,7.6,84,0.00,,,0.03,WUHU216HW,2013-03-07 09:27:00,
2013-03-07 04:32:00,35.1,30.7,29.88,NNW,338,2.7,7.6,84,0.00,,,0.03,WUHU216HW,2013-03-07 09:32:00,
2013-03-07 04:37:00,35.3,30.9,29.88,North,0,1.1,7.6,84,0.00,,,0.03,WUHU216HW,2013-03-07 09:37:00,
2013-03-07 04:42:00,35.3,30.6,29.88,North,0,1.6,7.6,83,0.00,,,0.03,WUHU216HW,2013-03-07 09:42:00,
2013-03-07 04:47:00,35.5,30.4,29.88,NNE,23,5.1,9.4,82,0.00,,,0.03,WUHU216HW,2013-03-07 09:47:00,
2013-03-07 04:52:00,35.5,30.4,29.88,NW,315,6.0,10.7,82,0.00,,,0.03,WUHU216HW,2013-03-07 09:52:00,
2013-03-07 04:57:00,35.6,30.1,29.89,NNE,23,7.2,10.7,80,0.00,,,0.03,WUHU216HW,2013-03-07 09:57:00,
2013-03-07 05:02:00,35.6,30.3,29.89,NE,45,6.5,9.2,81,0.00,,,0.03,WUHU216HW,2013-03-07 10:02:00,
2013-03-07 05:07:00,35.6,30.1,29.89,NNE,23,2.7,10.7,80,0.00,,,0.03,WUHU216HW,2013-03-07 10:07:00,
2013-03-07 05:12:00,35.6,30.1,29.89,NW,315,5.4,10.7,80,0.00,,,0.03,WUHU216HW,2013-03-07 10:12:00,
2013-03-07 05:17:00,35.6,30.1,29.89,NNE,23,6.3,10.7,80,0.00,,,0.03,WUHU216HW,2013-03-07 10:17:00,
2013-03-07 05:22:00,35.6,30.1,29.89,NE,45,8.7,10.1,80,0.00,,,0.03,WUHU216HW,2013-03-07 10:22:00,
2013-03-07 05:27:00,35.5,29.9,29.89,ESE,113,3.4,10.1,80,0.00,,,0.03,WUHU216HW,2013-03-07 10:27:00,
2013-03-07 05:32:00,35.5,29.9,29.89,NW,315,5.4,8.7,80,0.00,,,0.03,WUHU216HW,2013-03-07 10:32:00,
2013-03-07 05:37:00,35.5,29.9,29.90,NNE,23,4.7,8.3,80,0.00,,,0.03,WUHU216HW,2013-03-07 10:37:00,
2013-03-07 05:42:00,35.3,30.0,29.90,NNE,23,2.2,8.3,81,0.00,,,0.03,WUHU216HW,2013-03-07 10:42:00,
2013-03-07 05:47:00,35.3,30.0,29.90,North,0,1.1,11.4,81,0.00,,,0.03,WUHU216HW,2013-03-07 10:47:00,
2013-03-07 05:52:00,35.1,30.1,29.90,ESE,113,4.7,11.4,82,0.00,,,0.03,WUHU216HW,2013-03-07 10:52:00,
2013-03-07 05:57:00,34.9,30.3,29.90,North,0,5.1,8.3,83,0.00,,,0.03,WUHU216HW,2013-03-07 10:57:00,
2013-03-07 06:03:00,34.9,30.5,29.90,SSE,158,3.6,8.5,84,0.00,,,0.03,WUHU216HW,2013-03-07 11:03:00,
2013-03-07 06:08:00,34.6,30.2,29.91,North,0,4.5,8.5,84,0.00,,,0.03,WUHU216HW,2013-03-07 11:08:00,
2013-03-07 06:13:00,34.6,30.2,29.91,North,0,6.9,10.5,84,0.00,,,0.03,WUHU216HW,2013-03-07 11:13:00,
2013-03-07 06:18:00,34.4,30.0,29.91,South,180,4.5,10.5,84,0.00,,,0.03,WUHU216HW,2013-03-07 11:18:00,
2013-03-07 06:23:00,34.4,30.0,29.91,ENE,68,2.5,7.4,84,0.00,,,0.03,WUHU216HW,2013-03-07 11:23:00,
2013-03-07 06:28:00,34.6,30.2,29.91,West,270,4.9,6.3,84,0.00,,,0.03,WUHU216HW,2013-03-07 11:28:00,
2013-03-07 06:33:00,34.7,30.3,29.91,NNW,338,2.0,6.9,84,0.00,,,0.03,WUHU216HW,2013-03-07 11:33:00,
2013-03-07 06:38:00,34.9,30.3,29.92,NE,45,2.7,6.9,83,0.00,,,0.03,WUHU216HW,2013-03-07 11:38:00,
2013-03-07 06:43:00,34.9,29.9,29.92,NNW,338,4.0,8.1,82,0.00,,,0.03,WUHU216HW,2013-03-07 11:43:00,
2013-03-07 06:48:00,35.1,30.1,29.92,NW,315,1.6,8.1,82,0.00,,,0.03,WUHU216HW,2013-03-07 11:48:00,
2013-03-07 06:53:00,35.1,30.1,29.93,NNW,338,3.1,7.2,82,0.00,,,0.03,WUHU216HW,2013-03-07 11:53:00,
2013-03-07 06:58:00,35.1,30.1,29.93,NNW,338,8.3,8.3,82,0.00,,,0.03,WUHU216HW,2013-03-07 11:58:00,
2013-03-07 07:03:00,35.1,30.1,29.93,NNW,338,1.8,8.3,82,0.00,,,0.03,WUHU216HW,2013-03-07 12:03:00,
2013-03-07 07:08:00,34.9,29.9,29.93,North,0,1.1,8.7,82,0.00,,,0.03,WUHU216HW,2013-03-07 12:08:00,
2013-03-07 07:13:00,34.9,29.9,29.93,North,0,5.1,8.7,82,0.00,,,0.03,WUHU216HW,2013-03-07 12:13:00,
2013-03-07 07:18:00,35.1,30.1,29.93,SE,135,2.5,8.1,82,0.00,,,0.03,WUHU216HW,2013-03-07 12:18:00,
2013-03-07 07:23:00,35.1,30.4,29.94,North,0,6.3,6.9,83,0.00,,,0.03,WUHU216HW,2013-03-07 12:23:00,
2013-03-07 07:28:00,35.1,30.1,29.93,NNE,23,3.6,6.3,82,0.00,,,0.03,WUHU216HW,2013-03-07 12:28:00,
2013-03-07 07:33:00,35.3,30.6,29.94,North,0,2.7,7.6,83,0.00,,,0.03,WUHU216HW,2013-03-07 12:33:00,
2013-03-07 07:38:00,35.3,30.6,29.94,East,90,4.7,8.1,83,0.00,,,0.03,WUHU216HW,2013-03-07 12:38:00,
2013-03-07 07:43:00,35.1,30.4,29.94,NNW,338,1.8,8.1,83,0.00,,,0.03,WUHU216HW,2013-03-07 12:43:00,
2013-03-07 07:48:00,35.1,30.7,29.94,ENE,68,4.0,7.2,84,0.00,,,0.03,WUHU216HW,2013-03-07 12:48:00,
2013-03-07 07:53:00,34.9,30.5,29.94,WNW,293,3.1,7.2,84,0.00,,,0.03,WUHU216HW,2013-03-07 12:53:00,
2013-03-07 07:58:00,34.9,30.5,29.94,South,180,2.7,8.1,84,0.00,,,0.03,WUHU216HW,2013-03-07 12:58:00,
2013-03-07 08:03:00,34.9,30.5,29.94,NNE,23,4.3,8.1,84,0.00,,,0.03,WUHU216HW,2013-03-07 13:03:00,
2013-03-07 08:08:00,35.1,30.7,29.94,NNE,23,1.1,6.5,84,0.00,,,0.03,WUHU216HW,2013-03-07 13:08:00,
2013-03-07 08:13:00,35.1,30.7,29.94,NNW,338,5.4,6.5,84,0.00,,,0.03,WUHU216HW,2013-03-07 13:13:00,
2013-03-07 08:18:00,35.3,30.9,29.94,SSE,158,1.8,7.6,84,0.00,,,0.03,WUHU216HW,2013-03-07 13:18:00,
2013-03-07 08:23:00,35.5,31.1,29.94,NNE,23,9.4,9.4,84,0.00,,,0.03,WUHU216HW,2013-03-07 13:23:00,
2013-03-07 08:28:00,35.3,30.9,29.94,NW,315,4.0,9.4,84,0.00,,,0.03,WUHU216HW,2013-03-07 13:28:00,
2013-03-07 08:33:00,35.3,31.1,29.93,NE,45,6.5,9.4,85,0.00,,,0.03,WUHU216HW,2013-03-07 13:33:00,
2013-03-07 08:38:00,35.3,31.1,29.93,NW,315,2.5,8.9,85,0.00,,,0.03,WUHU216HW,2013-03-07 13:38:00,
2013-03-07 08:43:00,35.3,31.1,29.94,NNE,23,6.9,8.9,85,0.00,,,0.03,WUHU216HW,2013-03-07 13:43:00,
2013-03-07 08:48:00,35.3,31.1,29.94,NNW,338,2.5,7.6,85,0.00,,,0.03,WUHU216HW,2013-03-07 13:48:00,
2013-03-07 08:53:00,35.6,31.5,29.94,NNW,338,2.7,7.2,85,0.00,,,0.03,WUHU216HW,2013-03-07 13:53:00,
2013-03-07 08:58:00,35.6,31.5,29.94,North,0,4.7,6.9,85,0.00,,,0.03,WUHU216HW,2013-03-07 13:58:00,
2013-03-07 09:03:00,35.8,32.0,29.94,North,0,1.3,6.3,86,0.00,,,0.03,WUHU216HW,2013-03-07 14:03:00,
2013-03-07 09:08:00,35.8,32.0,29.94,NNW,338,6.9,6.9,86,0.00,,,0.03,WUHU216HW,2013-03-07 14:08:00,
2013-03-07 09:13:00,35.8,31.7,29.93,NE,45,1.1,6.9,85,0.00,,,0.03,WUHU216HW,2013-03-07 14:13:00,
2013-03-07 09:18:00,35.8,31.7,29.94,ENE,68,1.1,7.6,85,0.00,,,0.03,WUHU216HW,2013-03-07 14:18:00,
2013-03-07 09:23:00,36.0,31.9,29.94,North,0,5.4,7.6,85,0.00,,,0.03,WUHU216HW,2013-03-07 14:23:00,
2013-03-07 09:28:00,36.0,31.6,29.94,NE,45,1.6,8.3,84,0.00,,,0.03,WUHU216HW,2013-03-07 14:28:00,
2013-03-07 09:33:00,36.2,31.8,29.94,NNE,23,3.4,8.3,84,0.00,,,0.03,WUHU216HW,2013-03-07 14:33:00,
2013-03-07 09:38:00,36.2,31.8,29.94,WNW,293,3.8,7.6,84,0.00,,,0.03,WUHU216HW,2013-03-07 14:38:00,
2013-03-07 09:43:00,36.4,32.0,29.94,North,0,4.5,5.8,84,0.00,,,0.03,WUHU216HW,2013-03-07 14:43:00,
2013-03-07 09:48:00,36.4,32.0,29.95,NE,45,4.7,8.9,84,0.00,,,0.03,WUHU216HW,2013-03-07 14:48:00,
2013-03-07 09:53:00,36.2,31.8,29.95,North,0,4.9,8.9,84,0.00,,,0.03,WUHU216HW,2013-03-07 14:53:00,
2013-03-07 09:58:00,36.2,32.0,29.95,NE,45,6.7,7.6,85,0.00,,,0.03,WUHU216HW,2013-03-07 14:58:00,
2013-03-07 10:03:00,36.2,32.0,29.95,ENE,68,1.8,6.7,85,0.00,,,0.03,WUHU216HW,2013-03-07 15:03:00,
2013-03-07 10:08:00,36.2,32.0,29.94,NNW,338,6.3,11.0,85,0.00,,,0.03,WUHU216HW,2013-03-07 15:08:00,
2013-03-07 10:13:00,36.0,31.9,29.94,North,0,5.4,11.0,85,0.00,,,0.03,WUHU216HW,2013-03-07 15:13:00,
2013-03-07 10:18:00,36.2,32.0,29.95,North,0,6.7,7.2,85,0.00,,,0.03,WUHU216HW,2013-03-07 15:18:00,
2013-03-07 10:23:00,36.2,32.0,29.95,North,0,4.5,7.6,85,0.00,,,0.03,WUHU216HW,2013-03-07 15:23:00,
2013-03-07 10:28:00,36.2,32.0,29.95,NNE,23,1.1,7.6,85,0.00,,,0.03,WUHU216HW,2013-03-07 15:28:00,
2013-03-07 10:33:00,36.4,32.0,29.95,NNW,338,4.0,7.6,84,0.00,,,0.03,WUHU216HW,2013-03-07 15:33:00,
2013-03-07 10:38:00,36.4,32.0,29.95,North,0,2.5,7.6,84,0.00,,,0.03,WUHU216HW,2013-03-07 15:38:00,
2013-03-07 10:43:00,36.4,32.0,29.95,North,0,3.1,6.9,84,0.00,,,0.03,WUHU216HW,2013-03-07 15:43:00,
2013-03-07 10:48:00,36.4,32.0,29.95,North,0,2.0,6.9,84,0.00,,,0.03,WUHU216HW,2013-03-07 15:48:00,
2013-03-07 10:53:00,36.5,32.1,29.95,NNE,23,2.0,6.9,84,0.00,,,0.03,WUHU216HW,2013-03-07 15:53:00,
2013-03-07 10:58:00,36.7,32.3,29.95,NW,315,4.7,7.4,84,0.00,,,0.03,WUHU216HW,2013-03-07 15:58:00,
2013-03-07 11:03:00,36.9,32.5,29.95,ENE,68,1.1,7.4,84,0.00,,,0.03,WUHU216HW,2013-03-07 16:03:00,
2013-03-07 11:08:00,36.9,32.5,29.96,SSW,203,3.4,7.2,84,0.00,,,0.03,WUHU216HW,2013-03-07 16:08:00,
2013-03-07 11:13:00,36.9,32.5,29.96,North,0,4.5,7.2,84,0.00,,,0.03,WUHU216HW,2013-03-07 16:13:00,
2013-03-07 11:18:00,36.9,32.5,29.96,NE,45,3.6,6.3,84,0.00,,,0.03,WUHU216HW,2013-03-07 16:18:00,
2013-03-07 11:23:00,37.1,32.7,29.96,NW,315,4.7,8.5,84,0.00,,,0.03,WUHU216HW,2013-03-07 16:23:00,
2013-03-07 11:28:00,37.1,32.7,29.96,WNW,293,1.8,8.5,84,0.00,,,0.03,WUHU216HW,2013-03-07 16:28:00,
2013-03-07 11:33:00,37.4,33.0,29.96,NNE,23,4.5,4.7,84,0.00,,,0.03,WUHU216HW,2013-03-07 16:33:00,
2013-03-07 11:38:00,37.4,32.8,29.96,NNE,23,2.7,7.8,83,0.00,,,0.03,WUHU216HW,2013-03-07 16:38:00,
2013-03-07 11:43:00,37.6,33.0,29.95,North,0,1.8,7.8,83,0.00,,,0.03,WUHU216HW,2013-03-07 16:43:00,
2013-03-07 11:48:00,37.8,32.8,29.96,NNW,338,2.2,6.9,82,0.00,,,0.03,WUHU216HW,2013-03-07 16:48:00,
2013-03-07 11:53:00,37.8,32.8,29.96,NE,45,6.5,6.9,82,0.00,,,0.03,WUHU216HW,2013-03-07 16:53:00,
2013-03-07 11:58:00,37.8,32.5,29.96,NNE,23,3.4,7.2,81,0.00,,,0.03,WUHU216HW,2013-03-07 16:58:00,
2013-03-07 12:03:00,37.8,32.5,29.96,NE,45,1.6,8.5,81,0.00,,,0.03,WUHU216HW,2013-03-07 17:03:00,
2013-03-07 12:08:00,37.8,32.2,29.96,North,0,4.9,11.4,80,0.00,,,0.03,WUHU216HW,2013-03-07 17:08:00,
2013-03-07 12:13:00,38.0,32.7,29.96,NNE,23,3.4,11.4,81,0.00,,,0.03,WUHU216HW,2013-03-07 17:13:00,
2013-03-07 12:18:00,38.2,32.9,29.96,NNW,338,6.3,6.5,81,0.00,,,0.03,WUHU216HW,2013-03-07 17:18:00,
2013-03-07 12:23:00,38.2,32.6,29.96,NNW,338,5.4,9.2,80,0.00,,,0.03,WUHU216HW,2013-03-07 17:23:00,
2013-03-07 12:28:00,38.3,32.8,29.95,NNW,338,3.6,9.2,80,0.00,,,0.03,WUHU216HW,2013-03-07 17:28:00,
2013-03-07 12:33:00,38.3,32.8,29.95,North,0,1.8,6.5,80,0.00,,,0.03,WUHU216HW,2013-03-07 17:33:00,
2013-03-07 12:38:00,38.5,32.9,29.95,NE,45,3.4,6.7,80,0.00,,,0.03,WUHU216HW,2013-03-07 17:38:00,
2013-03-07 12:43:00,38.7,32.8,29.95,NE,45,3.4,8.1,79,0.00,,,0.03,WUHU216HW,2013-03-07 17:43:00,
2013-03-07 12:48:00,38.9,32.9,29.95,WNW,293,5.4,8.5,79,0.00,,,0.03,WUHU216HW,2013-03-07 17:48:00,
2013-03-07 12:53:00,39.1,33.1,29.95,NNW,338,2.7,8.5,79,0.00,,,0.03,WUHU216HW,2013-03-07 17:53:00,
2013-03-07 12:59:00,39.1,33.1,29.95,NW,315,5.4,8.5,79,0.00,,,0.03,WUHU216HW,2013-03-07 17:59:00,
2013-03-07 13:04:00,38.9,32.9,29.95,NNE,23,1.8,8.3,79,0.00,,,0.03,WUHU216HW,2013-03-07 18:04:00,
2013-03-07 13:09:00,39.1,33.1,29.95,North,0,4.9,8.3,79,0.00,,,0.03,WUHU216HW,2013-03-07 18:09:00,
2013-03-07 13:14:00,39.1,33.1,29.95,North,0,5.1,8.3,79,0.00,,,0.03,WUHU216HW,2013-03-07 18:14:00,
2013-03-07 13:19:00,39.2,33.3,29.95,NNE,23,2.0,6.7,79,0.00,,,0.03,WUHU216HW,2013-03-07 18:19:00,
2013-03-07 13:24:00,39.2,32.9,29.96,NNE,23,4.0,7.8,78,0.00,,,0.03,WUHU216HW,2013-03-07 18:24:00,
2013-03-07 13:29:00,39.2,33.3,29.96,NNW,338,1.8,7.8,79,0.00,,,0.03,WUHU216HW,2013-03-07 18:29:00,
2013-03-07 13:34:00,39.2,33.3,29.95,NNW,338,4.0,6.9,79,0.00,,,0.03,WUHU216HW,2013-03-07 18:34:00,
2013-03-07 13:39:00,39.2,33.3,29.95,SSE,158,2.7,7.2,79,0.00,,,0.03,WUHU216HW,2013-03-07 18:39:00,
2013-03-07 13:44:00,39.2,33.3,29.95,NNE,23,1.1,7.2,79,0.00,,,0.03,WUHU216HW,2013-03-07 18:44:00,
2013-03-07 13:49:00,39.4,33.5,29.95,South,180,3.8,6.9,79,0.00,,,0.03,WUHU216HW,2013-03-07 18:49:00,
2013-03-07 13:54:00,39.2,33.3,29.95,NNW,338,3.4,5.4,79,0.00,,,0.03,WUHU216HW,2013-03-07 18:54:00,
2013-03-07 13:59:00,39.2,33.7,29.96,North,0,3.4,6.5,80,0.00,,,0.03,WUHU216HW,2013-03-07 18:59:00,
2013-03-07 14:04:00,39.1,33.5,29.96,North,0,3.4,6.9,80,0.00,,,0.03,WUHU216HW,2013-03-07 19:04:00,
2013-03-07 14:09:00,39.1,33.5,29.96,WNW,293,2.7,7.4,80,0.00,,,0.03,WUHU216HW,2013-03-07 19:09:00,
2013-03-07 14:14:00,38.9,33.3,29.96,North,0,4.0,7.4,80,0.00,,,0.03,WUHU216HW,2013-03-07 19:14:00,
2013-03-07 14:19:00,38.5,32.9,29.96,NNW,338,6.0,7.8,80,0.00,,,0.03,WUHU216HW,2013-03-07 19:19:00,
2013-03-07 14:24:00,38.5,33.2,29.96,West,270,3.1,7.8,81,0.00,,,0.03,WUHU216HW,2013-03-07 19:24:00,
2013-03-07 14:29:00,38.7,33.4,29.97,WNW,293,3.1,6.0,81,0.00,,,0.03,WUHU216HW,2013-03-07 19:29:00,
2013-03-07 14:34:00,38.7,33.4,29.97,NNE,23,3.1,6.9,81,0.00,,,0.03,WUHU216HW,2013-03-07 19:34:00,
2013-03-07 14:39:00,38.9,33.6,29.97,ESE,113,3.1,6.9,81,0.00,,,0.03,WUHU216HW,2013-03-07 19:39:00,
2013-03-07 14:44:00,38.9,33.3,29.97,NW,315,1.3,7.4,80,0.00,,,0.03,WUHU216HW,2013-03-07 19:44:00,
2013-03-07 14:49:00,38.9,33.3,29.97,NNE,23,3.4,8.9,80,0.00,,,0.03,WUHU216HW,2013-03-07 19:49:00,
2013-03-07 14:54:00,38.9,33.3,29.97,NNW,338,4.3,8.9,80,0.00,,,0.03,WUHU216HW,2013-03-07 19:54:00,
2013-03-07 14:59:00,38.9,33.3,29.97,North,0,4.0,10.1,80,0.00,,,0.03,WUHU216HW,2013-03-07 19:59:00,
2013-03-07 15:04:00,38.9,33.3,29.97,North,0,5.1,10.1,80,0.00,,,0.03,WUHU216HW,2013-03-07 20:04:00,
2013-03-07 15:09:00,38.9,33.3,29.97,West,270,4.7,8.9,80,0.00,,,0.03,WUHU216HW,2013-03-07 20:09:00,
2013-03-07 15:14:00,38.9,33.6,29.97,NNW,338,5.8,8.9,81,0.00,,,0.03,WUHU216HW,2013-03-07 20:14:00,
2013-03-07 15:19:00,38.5,32.9,29.98,North,0,4.3,10.3,80,0.00,,,0.03,WUHU216HW,2013-03-07 20:19:00,
2013-03-07 15:24:00,38.5,33.2,29.98,NNE,23,4.7,10.3,81,0.00,,,0.03,WUHU216HW,2013-03-07 20:24:00,
2013-03-07 15:29:00,38.5,33.2,29.98,North,0,7.4,9.2,81,0.00,,,0.03,WUHU216HW,2013-03-07 20:29:00,
2013-03-07 15:34:00,38.5,33.2,29.98,NE,45,2.5,7.4,81,0.00,,,0.03,WUHU216HW,2013-03-07 20:34:00,
2013-03-07 15:39:00,38.3,32.8,29.98,North,0,7.2,10.3,80,0.00,,,0.03,WUHU216HW,2013-03-07 20:39:00,
2013-03-07 15:44:00,38.3,32.8,29.98,NNE,23,2.5,10.3,80,0.00,,,0.03,WUHU216HW,2013-03-07 20:44:00,
2013-03-07 15:49:00,38.3,32.8,29.98,NNW,338,4.3,7.6,80,0.00,,,0.03,WUHU216HW,2013-03-07 20:49:00,
2013-03-07 15:54:00,38.5,32.9,29.98,NW,315,3.8,7.8,80,0.00,,,0.03,WUHU216HW,2013-03-07 20:54:00,
2013-03-07 16:00:00,38.5,33.2,29.98,NNW,338,3.1,8.3,81,0.00,,,0.03,WUHU216HW,2013-03-07 21:00:00,
2013-03-07 16:05:00,38.2,33.1,29.99,North,0,4.7,8.3,82,0.00,,,0.03,WUHU216HW,2013-03-07 21:05:00,
2013-03-07 16:10:00,38.0,32.9,29.99,NW,315,4.0,7.6,82,0.00,,,0.03,WUHU216HW,2013-03-07 21:10:00,
2013-03-07 16:15:00,37.8,33.1,29.99,NNW,338,1.6,7.6,83,0.00,,,0.03,WUHU216HW,2013-03-07 21:15:00,
2013-03-07 16:20:00,37.8,33.1,29.99,NW,315,5.4,7.4,83,0.00,,,0.03,WUHU216HW,2013-03-07 21:20:00,
2013-03-07 16:25:00,37.6,33.2,29.99,NW,315,6.3,6.5,84,0.00,,,0.03,WUHU216HW,2013-03-07 21:25:00,
2013-03-07 16:30:00,37.6,33.0,29.99,WSW,248,2.0,6.9,83,0.00,,,0.03,WUHU216HW,2013-03-07 21:30:00,
2013-03-07 16:35:00,37.4,33.0,29.99,NW,315,4.0,8.5,84,0.00,,,0.03,WUHU216HW,2013-03-07 21:35:00,
2013-03-07 16:40:00,37.3,32.6,29.99,North,0,3.4,8.5,83,0.00,,,0.03,WUHU216HW,2013-03-07 21:40:00,
2013-03-07 16:45:00,37.3,32.9,29.99,WNW,293,4.9,4.9,84,0.00,,,0.03,WUHU216HW,2013-03-07 21:45:00,
2013-03-07 16:50:00,37.3,32.6,29.99,NNE,23,2.5,4.9,83,0.00,,,0.03,WUHU216HW,2013-03-07 21:50:00,
2013-03-07 16:55:00,37.3,32.6,30.00,NNW,338,1.3,6.0,83,0.00,,,0.03,WUHU216HW,2013-03-07 21:55:00,
2013-03-07 17:00:00,37.1,32.0,30.00,WNW,293,3.4,7.2,82,0.01,,,0.05,WUHU216HW,2013-03-07 22:00:00,
2013-03-07 17:05:00,37.1,32.0,30.00,NNW,338,4.5,7.8,82,0.01,,,0.05,WUHU216HW,2013-03-07 22:05:00,
2013-03-07 17:10:00,37.1,32.0,30.00,North,0,7.6,7.8,82,0.01,,,0.05,WUHU216HW,2013-03-07 22:10:00,
2013-03-07 17:15:00,36.9,31.9,30.00,East,90,3.4,9.4,82,0.01,,,0.05,WUHU216HW,2013-03-07 22:15:00,
2013-03-07 17:20:00,36.7,31.7,30.00,NNW,338,7.8,9.4,82,0.01,,,0.05,WUHU216HW,2013-03-07 22:20:00,
2013-03-07 17:25:00,36.9,31.9,30.00,NNW,338,4.7,7.8,82,0.01,,,0.05,WUHU216HW,2013-03-07 22:25:00,
2013-03-07 17:30:00,36.7,31.7,30.00,NNW,338,3.6,7.6,82,0.01,,,0.05,WUHU216HW,2013-03-07 22:30:00,
2013-03-07 17:35:00,36.7,31.7,30.00,NW,315,2.5,8.5,82,0.01,,,0.05,WUHU216HW,2013-03-07 22:35:00,
2013-03-07 17:40:00,36.7,31.7,30.00,WNW,293,8.5,8.5,82,0.01,,,0.05,WUHU216HW,2013-03-07 22:40:00,
2013-03-07 17:45:00,36.7,31.7,30.00,NNW,338,6.3,8.5,82,0.01,,,0.05,WUHU216HW,2013-03-07 22:45:00,
2013-03-07 17:50:00,36.7,31.7,30.00,NNW,338,2.9,8.5,82,0.01,,,0.05,WUHU216HW,2013-03-07 22:50:00,
2013-03-07 17:55:00,36.7,31.7,30.01,North,0,6.9,8.5,82,0.01,,,0.05,WUHU216HW,2013-03-07 22:55:00,
2013-03-07 18:00:00,36.5,31.5,30.01,North,0,6.3,6.9,82,0.00,,,0.05,WUHU216HW,2013-03-07 23:00:00,
2013-03-07 18:05:00,36.5,31.5,30.01,NNW,338,3.1,9.8,82,0.00,,,0.05,WUHU216HW,2013-03-07 23:05:00,
2013-03-07 18:10:00,36.5,31.5,30.01,North,0,4.3,9.8,82,0.00,,,0.05,WUHU216HW,2013-03-07 23:10:00,
2013-03-07 18:15:00,36.5,31.5,30.01,North,0,5.4,9.8,82,0.00,,,0.05,WUHU216HW,2013-03-07 23:15:00,
2013-03-07 18:20:00,36.4,31.3,30.01,NW,315,4.7,10.1,82,0.00,,,0.05,WUHU216HW,2013-03-07 23:20:00,
2013-03-07 18:25:00,36.4,31.7,30.01,NNW,338,4.7,10.1,83,0.00,,,0.05,WUHU216HW,2013-03-07 23:25:00,
2013-03-07 18:30:00,36.4,31.7,30.02,WNW,293,1.8,9.2,83,0.00,,,0.05,WUHU216HW,2013-03-07 23:30:00,
2013-03-07 18:35:00,36.2,31.5,30.02,North,0,3.4,9.2,83,0.00,,,0.05,WUHU216HW,2013-03-07 23:35:00,
2013-03-07 18:40:00,36.2,31.8,30.02,WNW,293,5.4,8.7,84,0.00,,,0.05,WUHU216HW,2013-03-07 23:40:00,
2013-03-07 18:45:00,36.0,31.6,30.02,WNW,293,2.5,6.7,84,0.00,,,0.05,WUHU216HW,2013-03-07 23:45:00,
2013-03-07 18:50:00,36.0,31.6,30.02,NW,315,1.3,8.9,84,0.00,,,0.05,WUHU216HW,2013-03-07 23:50:00,
2013-03-07 18:55:00,36.0,31.6,30.02,NW,315,3.6,8.9,84,0.00,,,0.05,WUHU216HW,2013-03-07 23:55:00,
2013-03-07 19:00:00,35.8,31.7,30.02,NNE,23,7.8,13.0,85,0.00,,,0.05,WUHU216HW,2013-03-08 00:00:00,
2013-03-07 19:05:00,35.6,31.2,30.02,NW,315,6.7,13.0,84,0.00,,,0.05,WUHU216HW,2013-03-08 00:05:00,
2013-03-07 19:10:00,35.6,31.5,30.02,NNW,338,3.8,6.9,85,0.00,,,0.05,WUHU216HW,2013-03-08 00:10:00,
2013-03-07 19:15:00,35.5,31.3,30.02,NW,315,2.2,5.6,85,0.00,,,0.05,WUHU216HW,2013-03-08 00:15:00,
2013-03-07 19:20:00,35.5,31.6,30.02,North,0,3.6,5.6,86,0.00,,,0.05,WUHU216HW,2013-03-08 00:20:00,
2013-03-07 19:25:00,35.3,31.4,30.02,NW,315,5.4,5.4,86,0.00,,,0.05,WUHU216HW,2013-03-08 00:25:00,
2013-03-07 19:30:00,35.3,31.4,30.02,NNW,338,1.3,6.5,86,0.00,,,0.05,WUHU216HW,2013-03-08 00:30:00,
2013-03-07 19:35:00,35.1,31.2,30.02,NW,315,1.8,6.5,86,0.00,,,0.05,WUHU216HW,2013-03-08 00:35:00,
2013-03-07 19:40:00,35.1,31.2,30.03,NNE,23,1.3,5.6,86,0.00,,,0.05,WUHU216HW,2013-03-08 00:40:00,
2013-03-07 19:45:00,35.1,31.2,30.02,WSW,248,2.5,6.7,86,0.00,,,0.05,WUHU216HW,2013-03-08 00:45:00,
2013-03-07 19:50:00,35.1,31.5,30.02,WSW,248,4.7,6.7,87,0.00,,,0.05,WUHU216HW,2013-03-08 00:50:00,
2013-03-07 19:56:00,35.1,31.2,30.02,NNW,338,3.8,4.7,86,0.00,,,0.05,WUHU216HW,2013-03-08 00:56:00,
2013-03-07 20:01:00,35.1,31.2,30.02,NNW,338,3.4,4.7,86,0.00,,,0.05,WUHU216HW,2013-03-08 01:01:00,
2013-03-07 20:06:00,34.9,31.3,30.02,NNW,338,3.6,7.4,87,0.01,,,0.05,WUHU216HW,2013-03-08 01:06:00,
2013-03-07 20:11:00,34.9,31.7,30.02,NW,315,3.6,7.4,88,0.01,,,0.05,WUHU216HW,2013-03-08 01:11:00,
2013-03-07 20:16:00,34.9,31.3,30.02,NW,315,1.3,6.3,87,0.01,,,0.05,WUHU216HW,2013-03-08 01:16:00,
2013-03-07 20:21:00,34.9,31.3,30.02,WNW,293,1.1,6.3,87,0.01,,,0.05,WUHU216HW,2013-03-08 01:21:00,
2013-03-07 20:26:00,34.9,31.7,30.02,NW,315,2.5,5.6,88,0.01,,,0.05,WUHU216HW,2013-03-08 01:26:00,
2013-03-07 20:31:00,34.7,31.5,30.02,North,0,1.1,5.6,88,0.01,,,0.05,WUHU216HW,2013-03-08 01:31:00,
2013-03-07 20:36:00,34.7,31.1,30.02,ENE,68,2.9,5.1,87,0.01,,,0.05,WUHU216HW,2013-03-08 01:36:00,
2013-03-07 20:41:00,34.7,31.5,30.02,North,0,2.5,4.7,88,0.01,,,0.05,WUHU216HW,2013-03-08 01:41:00,
2013-03-07 20:46:00,34.7,31.8,30.01,NNW,338,1.8,6.0,89,0.01,,,0.05,WUHU216HW,2013-03-08 01:46:00,
2013-03-07 20:51:00,34.6,31.3,30.01,NW,315,1.8,6.9,88,0.02,,,0.07,WUHU216HW,2013-03-08 01:51:00,
2013-03-07 20:56:00,34.6,31.3,30.02,NW,315,6.3,6.9,88,0.02,,,0.07,WUHU216HW,2013-03-08 01:56:00,
2013-03-07 21:01:00,34.6,31.3,30.02,NNW,338,7.8,7.8,88,0.01,,,0.07,WUHU216HW,2013-03-08 02:01:00,
2013-03-07 21:06:00,34.6,31.3,30.01,NW,315,1.1,7.8,88,0.01,,,0.07,WUHU216HW,2013-03-08 02:06:00,
2013-03-07 21:11:00,34.6,31.6,30.02,NNE,23,3.4,8.3,89,0.01,,,0.07,WUHU216HW,2013-03-08 02:11:00,
2013-03-07 21:16:00,34.4,31.4,30.02,SW,225,2.7,8.3,89,0.01,,,0.07,WUHU216HW,2013-03-08 02:16:00,
2013-03-07 21:21:00,34.4,31.4,30.02,West,270,1.8,6.3,89,0.01,,,0.07,WUHU216HW,2013-03-08 02:21:00,
2013-03-07 21:26:00,34.2,31.2,30.02,NNW,338,4.9,6.3,89,0.01,,,0.07,WUHU216HW,2013-03-08 02:26:00,
2013-03-07 21:31:00,34.2,31.5,30.01,North,0,3.8,6.0,90,0.02,,,0.07,WUHU216HW,2013-03-08 02:31:00,
2013-03-07 21:36:00,34.2,31.2,30.01,North,0,1.1,7.4,89,0.02,,,0.07,WUHU216HW,2013-03-08 02:36:00,
2013-03-07 21:41:00,34.0,31.3,30.01,NNW,338,4.0,7.4,90,0.02,,,0.07,WUHU216HW,2013-03-08 02:41:00,
2013-03-07 21:46:00,34.0,31.3,30.01,North,0,5.4,5.6,90,0.01,,,0.07,WUHU216HW,2013-03-08 02:46:00,
2013-03-07 21:51:00,34.0,31.3,30.01,NW,315,2.7,6.0,90,0.01,,,0.07,WUHU216HW,2013-03-08 02:51:00,
2013-03-07 21:56:00,34.0,31.3,30.00,NW,315,0.9,6.0,90,0.01,,,0.07,WUHU216HW,2013-03-08 02:56:00,
2013-03-07 22:01:00,33.8,31.1,30.01,WNW,293,0.4,5.6,90,0.01,,,0.07,WUHU216HW,2013-03-08 03:01:00,
2013-03-07 22:06:00,33.8,31.1,30.01,NW,315,1.1,5.6,90,0.01,,,0.07,WUHU216HW,2013-03-08 03:06:00,
2013-03-07 22:11:00,33.8,31.1,30.00,WNW,293,1.6,5.1,90,0.01,,,0.07,WUHU216HW,2013-03-08 03:11:00,
2013-03-07 22:16:00,33.8,31.1,30.00,North,0,4.3,5.1,90,0.01,,,0.07,WUHU216HW,2013-03-08 03:16:00,
2013-03-07 22:21:00,33.8,31.1,30.00,North,0,6.7,6.7,90,0.01,,,0.07,WUHU216HW,2013-03-08 03:21:00,
2013-03-07 22:26:00,33.8,31.1,30.01,North,0,1.6,6.7,90,0.01,,,0.07,WUHU216HW,2013-03-08 03:26:00,
2013-03-07 22:31:00,33.8,31.4,30.01,North,0,6.7,6.7,91,0.01,,,0.09,WUHU216HW,2013-03-08 03:31:00,
2013-03-07 22:36:00,33.7,31.0,30.01,WNW,293,0.9,6.7,90,0.01,,,0.09,WUHU216HW,2013-03-08 03:36:00,
2013-03-07 22:42:00,33.7,31.0,30.00,NE,45,2.5,6.7,90,0.01,,,0.09,WUHU216HW,2013-03-08 03:42:00,
2013-03-07 22:47:00,33.7,31.2,30.01,NW,315,1.1,5.4,91,0.01,,,0.09,WUHU216HW,2013-03-08 03:47:00,
2013-03-07 22:52:00,33.7,31.2,30.01,NNW,338,1.1,5.4,91,0.01,,,0.09,WUHU216HW,2013-03-08 03:52:00,
2013-03-07 22:57:00,33.7,31.2,30.01,NW,315,3.8,5.6,91,0.01,,,0.09,WUHU216HW,2013-03-08 03:57:00,
2013-03-07 23:02:00,33.5,30.8,30.01,NW,315,2.5,5.6,90,0.01,,,0.09,WUHU216HW,2013-03-08 04:02:00,
2013-03-07 23:07:00,33.5,30.8,30.00,WNW,293,1.1,4.3,90,0.01,,,0.09,WUHU216HW,2013-03-08 04:07:00,
2013-03-07 23:12:00,33.5,31.3,30.00,North,0,3.4,5.4,92,0.01,,,0.09,WUHU216HW,2013-03-08 04:12:00,
2013-03-07 23:17:00,33.5,31.1,30.00,West,270,2.9,5.4,91,0.01,,,0.09,WUHU216HW,2013-03-08 04:17:00,
2013-03-07 23:22:00,33.5,31.3,30.01,NE,45,3.8,7.6,92,0.01,,,0.09,WUHU216HW,2013-03-08 04:22:00,
2013-03-07 23:27:00,33.5,31.1,30.01,NW,315,0.9,7.6,91,0.01,,,0.10,WUHU216HW,2013-03-08 04:27:00,
2013-03-07 23:32:00,33.5,31.1,30.00,NW,315,1.3,6.5,91,0.01,,,0.10,WUHU216HW,2013-03-08 04:32:00,
2013-03-07 23:37:00,33.5,31.3,30.00,North,0,2.7,6.5,92,0.01,,,0.10,WUHU216HW,2013-03-08 04:37:00,
2013-03-07 23:42:00,33.5,31.1,30.00,NNE,23,4.7,6.3,91,0.01,,,0.10,WUHU216HW,2013-03-08 04:42:00,
2013-03-07 23:47:00,33.5,31.1,30.00,NW,315,1.8,6.0,91,0.01,,,0.10,WUHU216HW,2013-03-08 04:47:00,
2013-03-07 23:52:00,33.5,31.1,30.00,North,0,1.8,6.0,91,0.01,,,0.10,WUHU216HW,2013-03-08 04:52:00,
2013-03-07 23:57:00,33.5,31.1,30.00,NNE,23,1.8,5.8,91,0.01,,,0.10,WUHU216HW,2013-03-08 04:57:00,